Location: Newark
(60.0000°N, 100.0000°E)
Time: 15:07:48
(UTC+00:00)

N. Korean satellite - Pass Details

Date: 21 November 2019
Orbit: 455 x 506 km, 97.2° (Epoch: 10 December)

Event Time Altitude Azimuth Distance (km) Brightness Sun altitude
Rises 00:28:47 0° 11° (NNE) 2,626 10.1 -7.3°
Reaches altitude 10° 00:31:01 10° 3° (N) 1,734 9.1 -7.0°
Maximum altitude 00:34:24 34° 297° (WNW) 853 7.3 -6.7°
Drops below altitude 10° 00:37:45 10° 232° (SW) 1,708 9.1 -6.3°
Sets 00:39:56 0° 223° (SW) 2,580 10.1 -6.1°
